Retour au catalogue

BEIDOU 3M2

ActifNavigationMEO
NORAD 43002·PAYLOAD·🇨🇳 China

Lancé Nov 5, 2017 depuis Xichang Satellite Launch Center

Loading…

Prochains Passages (prochaines 24 heures)

TLE

FraisSource: CelesTrak SupGP

Époque: Sep 14, 2026, 00:00 UTC

1 43002C 17069B   26257.00000000  .00000000  00000+0  00000+0 0  2579
2 43002  56.7729  60.1998 0005801   1.3234 220.1882  1.86230915    16

Suivez BEIDOU 3M2 en temps réel avec AllMySat

Download on the App Store